Orbital Elements at Epoch 2459200.5 (2020-Dec-17.0) TDB
Reference: JPL 21 (heliocentric ecliptic J2000)
Element | Value | Uncertainty (1-sigma) | Units |
e | .1293595908100545 | 3.7957e-08 | |
a | 2.373118767993613 | 1.0979e-08 | au |
q | 2.066133095222299 | 8.7922e-08 | au |
i | 11.8885633398857 | 4.1578e-06 | deg |
node | 63.92210301813962 | 1.9879e-05 | deg |
peri | 89.11876078249615 | 2.7376e-05 | deg |
M | 227.8543334743247 | 2.0994e-05 | deg |
tp | 2459690.648934510644 (2022-Apr-21.14893451) | 8.0009e-05 | TDB |
period | 1335.29627617072 3.66 | 9.2661e-06 2.537e-08 | d yr |
n | .2696030884114989 | 1.8709e-09 | deg/d |
Q | 2.680104440764928 | 1.2399e-08 | au |
|
| | Orbit Determination Parameters
Additional Information
|